[[{"header":{"parameterUnit":"m.s-1","parameterCategory":1,"la1":30.2991,"la2":30.254,"lo1":-89.0895,"lo2":-89.0444,"dy":0.0017,"dx":0.0017,"nx":28,"ny":28,"refTime":"2024-10-12T21:00:00:Z","depth":0,"parameterNumber":2,"parameterNumberName":"U-component_of_WINDS"},"data":[0,0,0,0,0,0,0,0,0,0,0,0,0,0,0,0,0,0,0,0,0,0,0,0,0,0,0,0,0,0,0,0,0,0,0,0,0,0,0,0,0,0,0,0,0,0,0,0,0,0,0,0,0,0,0,0,0,0,2.1427,2.1428,0,2.1516,2.1517,2.1518,2.1525,2.1524,2.1523,2.1522,2.1616,2.162,2.1623,0,0,0,0,0,0,0,0,0,0,0,0,0,2.1264,2.1267,2.1427,2.1428,2.1429,2.1516,2.1517,2.1519,2.1525,2.1524,2.1522,2.1521,2.1615,2.1619,2.1624,0,0,0,0,0,0,0,0,0,0,0,0,0,2.1342,2.1268,2.1426,2.1442,2.1445,2.1516,2.1518,2.1519,2.1525,2.1524,2.1522,2.1521,2.1614,2.1619,2.1624,2.1687,0,0,2.164,2.1642,0,0,0,0,0,0,0,0,2.1338,2.1348,2.1439,2.1441,2.1444,2.1508,2.1495,2.1575,2.1525,2.1495,2.1522,2.152,2.1582,2.1589,2.161,2.1691,2.1695,2.164,2.1644,2.1646,2.1647,0,0,0,0,0,0,0,2.1333,2.1345,2.1462,2.144,2.1443,2.1446,2.1456,2.151,2.1546,2.1497,2.1498,2.1508,2.1583,2.1605,2.1612,2.1696,2.164,2.1645,2.1648,2.165,2.1835,2.1837,0,0,0,0,0,0,2.1324,2.134,2.1459,2.1465,2.1386,2.145,2.1461,2.1489,2.1545,2.1552,2.1509,2.1508,2.1597,2.1606,2.1615,2.1692,2.1646,2.1651,2.1654,2.1833,2.1835,2.1837,0,0,0,0,0,0,2.132,2.1334,2.1456,2.1403,2.1418,2.1455,2.1486,2.1491,2.1513,2.1554,2.1561,2.1525,2.1596,2.1608,2.1669,2.1696,2.1653,2.1658,2.1831,2.1834,2.1836,2.1847,0,0,0,0,0,0,2.1315,2.1333,2.1356,2.1403,2.1421,2.1506,2.1488,2.1494,2.1522,2.1521,2.1571,2.1577,2.1595,2.1661,2.1674,2.1702,2.1662,2.1829,2.1832,2.1835,2.1844,2.1849,2.1854,0,0,0,0,0,2.131,2.1356,2.1357,2.1371,2.145,2.1508,2.1518,2.1537,2.1524,2.1548,2.1575,2.1576,2.1691,2.1667,2.1682,2.1712,2.1827,2.1831,2.1835,2.1842,2.1848,2.1854,0,0,0,0,0,0,2.1311,2.1362,2.1364,2.1426,2.1463,2.1509,2.154,2.1544,2.1585,2.1583,2.1606,2.1617,2.1677,2.1701,2.1674,2.1776,2.1758,2.1765,2.1758,2.1764,2.1769,2.1762,2.1666,0,0,0,0,0,2.1318,2.136,2.1403,2.1454,2.1472,2.1503,2.1528,2.154,2.1579,2.1595,2.1626,2.1664,2.1709,2.1738,2.1782,2.1848,2.186,2.1876,2.1881,2.1885,2.1891,2.1928,2.1936,2.185,2.185,2.185,0,0,2.1334,2.1367,2.1392,2.1455,2.1484,2.1528,2.1515,2.1562,2.1595,2.1602,2.1661,2.1685,2.173,2.1794,2.1824,2.1816,2.1917,2.189,2.1893,2.1897,2.1933,2.1941,2.1949,2.1853,2.1853,2.1852,0,0,2.1385,2.1414,2.146,2.149,2.1535,2.1556,2.1567,2.1613,2.1629,2.1689,2.1695,2.1736,2.1813,2.1844,2.1871,2.1936,2.1939,2.195,2.1975,2.2012,2.2018,2.2024,2.2048,2.2056,2.1956,2.1956,2.1956,0,2.1399,2.1464,2.1484,2.153,2.1558,2.1567,2.1614,2.1643,2.17,2.1719,2.171,2.1807,2.1838,2.1909,2.1925,2.1946,2.1961,2.1944,2.2016,2.2022,2.2028,2.2051,2.2059,2.1957,2.1957,2.1956,2.1956,0,2.148,2.1525,2.1557,2.1611,2.1643,2.169,2.1717,2.1748,2.1757,2.1779,2.1841,2.1878,2.193,2.1948,2.1958,2.2022,2.2016,2.2011,2.1993,2.2037,2.2058,2.2067,2.1958,2.1958,2.1957,2.1957,0,0,2.1532,2.1598,2.1609,2.1634,2.1686,2.1721,2.177,2.1819,2.1845,2.1885,2.1926,2.1992,2.1988,2.2018,2.2032,2.2064,2.2114,2.2055,2.2057,2.2064,2.2187,2.219,2.2199,2.2116,2.2118,2.212,2.2183,0,2.1588,2.1673,2.1693,2.1765,2.1808,2.1818,2.186,2.1897,2.1919,2.196,2.1985,2.2031,2.2022,2.204,2.2073,2.2101,2.2139,2.2097,2.2156,2.2158,2.2143,2.2211,2.2213,2.2271,2.2192,2.2193,2.2194,0,2.1665,2.1706,2.1783,2.1829,2.1848,2.1885,2.1933,2.1972,2.2014,2.2029,2.2063,2.2074,2.2126,2.2106,2.2178,2.2149,2.2175,2.2193,2.2196,2.2201,2.2178,2.2217,2.229,2.2299,2.2208,2.2207,2.2206,0,2.1695,2.177,2.1826,2.1847,2.1903,2.1929,2.1954,2.1995,2.2024,2.2067,2.2086,2.2135,2.2161,2.2199,2.2224,2.2207,2.2295,2.2277,2.2308,2.2308,2.2325,2.2323,2.2402,2.2343,2.2343,2.2343,2.2343,0,2.1755,2.1802,2.184,2.1874,2.1927,2.1951,2.2003,2.2028,2.2065,2.2105,2.2118,2.2156,2.2186,2.2229,2.2249,2.2305,2.2318,2.2331,2.2336,2.2329,2.2328,2.2346,2.2342,2.2345,2.2345,2.2344,2.2344,0,2.1797,2.1824,2.1886,2.1934,2.1948,2.1985,2.2027,2.2061,2.2085,2.2136,2.2149,2.2186,2.2237,2.2265,2.2329,2.2343,2.2406,2.2409,2.2391,2.2393,2.2423,2.242,2.2516,2.253,2.2462,2.2462,2.2463,0,2.1833,2.1869,2.1921,2.1949,2.1974,2.2018,2.2048,2.2074,2.2105,2.2157,2.2186,2.2237,2.2279,2.236,2.2393,2.2443,2.2446,2.2477,2.2454,2.2447,2.2446,2.2444,2.2447,2.248,2.2481,2.2481,2.2482,0,2.1894,2.1906,2.1948,2.1996,2.2032,2.2071,2.2109,2.2132,2.2164,2.2199,2.225,2.2283,2.2348,2.2399,2.2452,2.2479,2.2486,2.2489,2.2499,2.2492,2.248,2.2487,2.2401,2.2486,2.2486,2.2486,2.2485,2.2485,2.1933,2.1966,2.2009,2.2056,2.2088,2.2124,2.2159,2.2187,2.2231,2.2285,2.2299,2.2353,2.2397,2.2467,2.2496,2.254,2.2534,2.2548,2.2552,2.2555,2.2556,2.2474,2.2549,2.2549,2.2549,2.2549,2.2549,0,2.1995,2.2023,2.2066,2.212,2.2158,2.2161,2.2205,2.2236,2.2284,2.2324,2.2365,2.2425,2.2475,2.2513,2.2565,2.2593,2.2598,2.2605,2.2603,2.2609,2.2558,2.2544,2.2601,2.2601,2.2601,2.2601,2.2601,2.2601,2.2031,2.2086,2.2104,2.2177,2.2205,2.2258,2.2283,2.2317,2.2349,2.2415,2.2456,2.2481,2.252,2.2575,2.2622,2.2632,2.265,2.2657,2.2667,2.2618,2.2613,2.2607,2.2594,2.2661,2.2661,2.2715,2.2716,2.2716]},{"header":{"parameterUnit":"m.s-1","parameterCategory":1,"la1":30.2991,"la2":30.254,"lo1":-89.0895,"lo2":-89.0444,"dy":0.0017,"dx":0.0017,"nx":28,"ny":28,"refTime":"2024-10-12T21:00:00:Z","depth":0,"parameterNumber":3,"parameterNumberName":"V-component_of_WINDS"},"data":[0,0,0,0,0,0,0,0,0,0,0,0,0,0,0,0,0,0,0,0,0,0,0,0,0,0,0,0,0,0,0,0,0,0,0,0,0,0,0,0,0,0,0,0,0,0,0,0,0,0,0,0,0,0,0,0,0,0,3.2853,3.2853,0,3.2862,3.2862,3.2862,3.2877,3.2877,3.2877,3.2877,3.2884,3.2884,3.2884,0,0,0,0,0,0,0,0,0,0,0,0,0,3.2845,3.2845,3.2853,3.2853,3.2853,3.2862,3.2862,3.2862,3.2877,3.2877,3.2877,3.2878,3.2884,3.2884,3.2884,0,0,0,0,0,0,0,0,0,0,0,0,0,3.2851,3.2845,3.2853,3.2862,3.2862,3.2862,3.2862,3.2862,3.2877,3.2877,3.2877,3.2878,3.2884,3.2884,3.2884,3.2876,0,0,3.2884,3.2884,0,0,0,0,0,0,0,0,3.285,3.2851,3.286,3.2861,3.2862,3.2869,3.2862,3.2867,3.2876,3.2871,3.2877,3.2878,3.2879,3.2879,3.288,3.2876,3.2876,3.2884,3.2884,3.2884,3.2884,0,0,0,0,0,0,0,3.285,3.2851,3.2857,3.286,3.2861,3.2864,3.2865,3.2863,3.2872,3.2872,3.2873,3.2874,3.2879,3.288,3.288,3.2876,3.2884,3.2884,3.2884,3.2884,3.2864,3.2864,0,0,0,0,0,0,3.2849,3.285,3.2856,3.2857,3.2857,3.2864,3.2865,3.2866,3.2873,3.2874,3.2873,3.2874,3.288,3.288,3.288,3.287,3.2884,3.2884,3.2884,3.2864,3.2864,3.2863,0,0,0,0,0,0,3.2848,3.2849,3.2856,3.2854,3.2855,3.2863,3.2864,3.2866,3.2867,3.2874,3.2875,3.2872,3.288,3.2881,3.2876,3.287,3.2884,3.2884,3.2865,3.2864,3.2864,3.2849,0,0,0,0,0,0,3.2848,3.2849,3.2847,3.2854,3.2855,3.2853,3.2864,3.2866,3.2867,3.2868,3.2873,3.2875,3.2881,3.2877,3.2876,3.287,3.2884,3.2866,3.2865,3.2864,3.285,3.2848,3.2846,0,0,0,0,0,3.2848,3.2842,3.2847,3.2847,3.2853,3.2853,3.2853,3.2861,3.2866,3.2863,3.2868,3.2875,3.2871,3.2876,3.2876,3.287,3.2866,3.2865,3.2864,3.2851,3.2848,3.2846,0,0,0,0,0,0,3.2834,3.2843,3.2848,3.2845,3.2848,3.2855,3.2852,3.2858,3.2859,3.286,3.2868,3.2869,3.2864,3.2866,3.2872,3.2861,3.2869,3.2868,3.2859,3.2857,3.2855,3.2854,3.2883,0,0,0,0,0,3.283,3.283,3.2838,3.2834,3.2836,3.2843,3.2844,3.2849,3.2852,3.2853,3.2858,3.286,3.2859,3.2858,3.2858,3.285,3.2851,3.2846,3.2844,3.2842,3.2841,3.2835,3.2832,3.286,3.286,3.286,0,0,3.2823,3.2828,3.2828,3.2832,3.2835,3.2833,3.2844,3.2843,3.2842,3.2853,3.2849,3.2852,3.2855,3.2849,3.2846,3.2851,3.2833,3.284,3.2839,3.2839,3.2834,3.2831,3.2829,3.2859,3.2859,3.2859,0,0,3.2809,3.2813,3.281,3.2813,3.2817,3.2822,3.2821,3.2827,3.2829,3.2826,3.2834,3.2832,3.2831,3.2832,3.2832,3.2817,3.2823,3.2816,3.2806,3.28,3.2798,3.2796,3.2789,3.2787,3.2815,3.2815,3.2815,0,3.2799,3.2799,3.2807,3.2805,3.2806,3.2816,3.2812,3.2814,3.2817,3.2817,3.2822,3.282,3.2823,3.2816,3.2812,3.2812,3.281,3.2816,3.2798,3.2796,3.2794,3.2787,3.2785,3.2814,3.2815,3.2815,3.2815,0,3.2785,3.2785,3.2781,3.2785,3.2785,3.2782,3.2789,3.2788,3.2793,3.2797,3.2792,3.2795,3.2795,3.2794,3.2799,3.2788,3.279,3.2796,3.2805,3.279,3.2784,3.2782,3.2813,3.2814,3.2814,3.2814,0,0,3.2763,3.2771,3.277,3.2771,3.2776,3.2775,3.2771,3.2771,3.277,3.2771,3.2768,3.2766,3.2771,3.2771,3.2776,3.2771,3.2757,3.2778,3.2778,3.2773,3.2743,3.2737,3.2734,3.2761,3.2761,3.276,3.2742,0,3.275,3.2745,3.2752,3.2745,3.2743,3.2752,3.2749,3.2751,3.2754,3.2752,3.2755,3.2753,3.2761,3.2761,3.2757,3.276,3.2751,3.2761,3.2756,3.2756,3.2754,3.2731,3.2726,3.2709,3.274,3.2739,3.2739,0,3.2733,3.2734,3.2727,3.2731,3.2731,3.2728,3.2728,3.2726,3.2728,3.273,3.273,3.2736,3.2731,3.274,3.2732,3.2739,3.2737,3.2738,3.2737,3.2736,3.2746,3.2729,3.2704,3.2701,3.2736,3.2736,3.2736,0,3.2716,3.2716,3.2711,3.2712,3.2717,3.2714,3.2716,3.2718,3.2717,3.2717,3.2716,3.2715,3.2714,3.2712,3.2716,3.2723,3.2707,3.2717,3.2708,3.2708,3.2704,3.2704,3.2677,3.2704,3.2704,3.2704,3.2705,0,3.27,3.2695,3.2704,3.2701,3.2695,3.2702,3.2696,3.2698,3.2699,3.2696,3.2704,3.27,3.2707,3.2703,3.2707,3.2699,3.2699,3.2699,3.27,3.2698,3.2698,3.2696,3.2697,3.2704,3.2704,3.2704,3.2704,0,3.268,3.2686,3.2681,3.2686,3.2687,3.2682,3.2685,3.2682,3.2685,3.2681,3.268,3.2685,3.2681,3.2685,3.2682,3.2684,3.2673,3.2676,3.2673,3.2673,3.2663,3.2664,3.2634,3.263,3.266,3.266,3.266,0,3.2669,3.2665,3.2669,3.2668,3.2669,3.2667,3.2666,3.2672,3.2671,3.2671,3.2667,3.2664,3.2662,3.2655,3.2657,3.2654,3.2656,3.2646,3.2656,3.2654,3.2655,3.2655,3.2653,3.2644,3.2644,3.2643,3.2643,0,3.2648,3.2651,3.265,3.2649,3.2647,3.2647,3.2647,3.2645,3.2652,3.2649,3.2646,3.2644,3.264,3.2636,3.2633,3.2634,3.2639,3.264,3.2637,3.2635,3.2633,3.2632,3.2666,3.2641,3.2641,3.2641,3.2641,3.2641,3.2631,3.2628,3.263,3.2628,3.2628,3.2628,3.2624,3.2627,3.2624,3.2622,3.2626,3.2621,3.262,3.2617,3.2617,3.2612,3.2616,3.2613,3.2612,3.2611,3.2609,3.2634,3.2611,3.2612,3.2612,3.2612,3.2612,0,3.261,3.2611,3.2609,3.2609,3.2607,3.2612,3.2612,3.261,3.2605,3.2605,3.2603,3.2597,3.2593,3.2595,3.2591,3.2586,3.2588,3.2585,3.2585,3.2584,3.2606,3.2608,3.2583,3.2583,3.2583,3.2583,3.2583,3.2583,3.2598,3.2592,3.2595,3.2588,3.259,3.2585,3.2584,3.2583,3.2583,3.2577,3.2574,3.2575,3.2575,3.257,3.2566,3.2567,3.2564,3.256,3.2561,3.258,3.2583,3.2586,3.2588,3.2559,3.2559,3.2539,3.2539,3.2539]}]]